Weather Roundup
Issued by NWS Springfield, MO

Home | Current Version | Previous Version | Text Only | Print | Product List | Glossary On
Versions: 1 2 3 4 5 6 7 8 9 10 11 12 13 14 15 16 17 18 19 20 21 22 23 24 25 26 27 28 29 30 31 32 33 34 35 36 37 38 39 40 41 42 43 44 45 46 47 48 49 50
000
NZUS99 KSGF 101307
HRRSGF

HOURLY WEATHER
NATIONAL WEATHER SERVICE SPRINGFIELD MO
700 AM CST WED FEB 10 2016

......SGF CWA......

CITY           SKY/WX    TMP DP  RH WIND       PRES   REMARKS
SPRINGFIELD    MOCLDY    19  10  68 SW5       30.18S WCI  12
JOPLIN         CLOUDY    22  12  65 SW8       30.24F WCI  12
WEST PLAINS    CLEAR     16   6  65 CALM      30.17F
ROLLA          CLOUDY    14   8  77 W5        30.13F WCI   6
OSAGE BEACH    MOCLDY    16   7  67 CALM      30.17F
BRANSON        CLEAR     21   9  58 W6        30.22F WCI  14

......SURROUNDING SGF CWA......

CITY           SKY/WX    TMP DP  RH WIND       PRES   REMARKS
CHANUTE        MOCLDY    21  14  74 S8        30.22F WCI  11
PARSONS        CLEAR     22  14  71 CALM      30.24F
COFFEYVILLE    CLEAR     21  14  74 SE5       30.26S WCI  15
EMPORIA        CLEAR     24  11  57 S15       30.13F WCI  11
GROVE OK       CLOUDY    27  19  74 CALM      30.29R
ROGERS AR      MOCLDY    20  10  65 SW6       30.25R WCI  12
SILOAM SPRINGS CLOUDY    21   7  53 CALM      30.26R
HARRISON AR    CLEAR     21   8  57 W6        30.22S WCI  13
NEAR YELLVILLE CLEAR     21   7  53 SW5       30.23S WCI  15

......KANSAS AND MISSOURI......

CITY           SKY/WX    TMP DP  RH WIND       PRES   REMARKS
KANSAS CTY INT FLURRIES  24  15  68 S5        30.14F WCI  18
DOWNTOWN KC    CLOUDY    27  14  58 SW5       30.17F WCI  22
COLUMBIA       CLOUDY    15   8  73 CALM      30.16F
SEDALIA        CLOUDY    20  12  71 W5        30.19R WCI  13
ST JOSEPH      FLURRIES  25  16  68 S7        30.13F WCI  17
ST LOUIS       MOCLDY    15   6  67 W9        30.16S WCI   3
SPIRIT OF STL  PTCLDY    13   7  77 W7        30.18R WCI   3
KIRKSVILLE     CLOUDY    14   8  77 CALM      30.14S
WICHITA        CLEAR     25  16  68 S12       30.14F WCI  14
TOPEKA         PTCLDY    26  13  57 S5        30.15F WCI  20
OLATHE         CLOUDY    23  13  65 S6        30.15F WCI  16

......TENNESSEE......

CITY           SKY/WX    TMP DP  RH WIND       PRES   REMARKS
MEMPHIS        PTCLDY    24   8  50 NW12      30.27R WCI  13
NASHVILLE      PTCLDY    20   9  62 NW9       30.16R WCI   9

......ARKANSAS.......

CITY           SKY/WX    TMP DP  RH WIND       PRES   REMARKS
FAYETTEVILLE   MOCLDY    18  13  80 S5        30.25R WCI  11
FT SMITH       PTCLDY    22  10  60 W8        30.33R WCI  12
LITTLE ROCK    CLEAR     28   8  43 W6        30.34R WCI  22

......OKLAHOMA.......

CITY           SKY/WX    TMP DP  RH WIND       PRES   REMARKS
TULSA          PTCLDY    27  13  55 S9        30.26F WCI  18
PONCA CITY     CLEAR     27  15  61 S9        30.21F WCI  18
MCALESTER      PTCLDY    23  15  71 SE3       30.30F
OKLAHOMA CITY  CLEAR     23  20  88 S8        30.23F WCI  14

......IOWA............

CITY           SKY/WX    TMP DP  RH WIND       PRES   REMARKS
DES MOINES     LGT SNOW  16   7  67 CALM      30.12F
QUAD CITIES    CLOUDY     8  -2  63 W7        30.12R WCI  -3

......ILLINOIS........

CITY           SKY/WX    TMP DP  RH WIND       PRES   REMARKS
QUINCY         CLOUDY    11   5  77 NW6       30.15R WCI   1
CHICAGO        PTCLDY     9   0  67 NW9       29.98F WCI  -4



USA.gov is the U.S. government's official web portal to all federal, state and local government web resources and services.